Location: Driftpile
(55.3500°N, 115.7667°W)
Time: 07:52:08
(UTC+00:00)

N. Korean satellite - Pass Details

Date: 01 December 2021
Orbit: 447 x 490 km, 97.3° (Epoch: 26 January)

Event Time Altitude Azimuth Distance (km) Brightness Sun altitude
Rises 01:13:31 0° 212° (SSW) 2,539 11.0 -15.3°
Reaches altitude 10° 01:16:25 10° 238° (WSW) 1,655 10.5 -15.6°
Maximum altitude 01:18:21 14° 272° (W) 1,419 10.0 -15.9°
Drops below altitude 10° 01:20:17 10° 305° (NW) 1,648 9.8 -16.2°
Sets 01:23:10 0° 332° (NNW) 2,520 10.4 -16.6°
